Lake Worth, FL (33460)

7:15 AM EDT on August 05, 2015 (GMT -0400)
Lake Clarke Shores - Caribbean Rd. East | | Change Station
CLOSE
Current Station
Personal Weather Station
Location: Lake Clarke Shores, FL
Elevation: 16 ft
Nearby Weather Stations

Elev 16 ft 26.63 °N, 80.07 °W | Updated 33 seconds ago

Partly Cloudy
Partly Cloudy
79.9 °F
Feels Like 86 °F
N
0.0
Wind Variable Wind from ENE
Gusts 0.0 mph

Today
High -- | Low -- °F
--% Chance of Precip.
Yesterday
High -- | Low -- °F
Precip. -- in
6:47 AM 8:05 PM
Waning Gibbous, 68% visible
Pressure 30.09 in
Visibility 10.0 miles
Clouds Few 2500 ft
Scattered Clouds 25000 ft
Heat Index 86 °F
Dew Point 77 °F
Humidity 91%
Rainfall 0.00 in
Snow Depth Not available.
UV 0 out of 12
Pollen 3.40 out of 12
Air Quality Not available.
Flu Activity Not available.
METAR KPBI 051053Z 00000KT 10SM FEW025 SCT250 25/23 A3009 RMK AO2 SLP189 T02500233

More Conditions Fewer Conditions

Pressure 30.09 in
Visibility 10.0 miles
Clouds Few 2500 ft
Scattered Clouds 25000 ft
Heat Index 86 °F
Dew Point 77 °F
Humidity 91%
Rainfall 0.00 in
Snow Depth Not available.
UV 0 out of 12
Pollen 3.40 out of 12
Air Quality Not available.
Flu Activity Not available.
METAR KPBI 051053Z 00000KT 10SM FEW025 SCT250 25/23 A3009 RMK AO2 SLP189 T02500233

More Conditions Fewer Conditions

10-Day Weather Forecast

×

Almanac

Astronomy

Aug. 05, 2015 Rise Set
Actual Time
Civil Twilight
Nautical Twilight
Astronomical Twilight
Moon
Length of Visible Light
Length of Day
Tomorrow will be .
, % of the Moon is Illuminated

Today's Extremes

State Highs State Lows

Community

WunderPhotos

Upload Photos

1,844,125 photos uploaded!

WunderBlogs® & News

Nearby

Air Quality

  Air Quality AQ Index Pollutant
Not available.

Snow Depth

Station Depth Elevation

Earthquake Activity

City Distance Mag. Time & Date
Minimum magnitude displayed is 2.5.

Coastal Water Temperatures

Place Temperature

Stations

Nearby Weather Stations

Station Location Temp. Windchill Dew Point Humidity Wind Precip. Elev Updated Type